• Em Portugal
  • Lista de países
  • Para 7 dias
  • Temperatura da água
  • Mapas de satélite
  • Mapa do tempo
  • Widgets de tempo
  • user-avatar
    Iniciar Sessão

    Previsão horária em Cumamoto

    Hoje, 14 Novembro, Quarta-feira

    Tempo Temperatura Precipitação Vento Pressão Humidade
    00:00 +13°C° 0 mm 3 m/s 761 mmHg 84%
    01:00 +12°C° 0 mm 3 m/s 761 mmHg 84%
    02:00 +12°C° 0 mm 3 m/s 761 mmHg 83%
    03:00 +12°C° 0 mm 3 m/s 761 mmHg 83%
    04:00 +12°C° 0 mm 3 m/s 761 mmHg 83%
    05:00 +11°C° 0 mm 3 m/s 762 mmHg 83%
    06:00 +11°C° 0 mm 3 m/s 762 mmHg 84%
    07:00 +12°C° 0 mm 3 m/s 762 mmHg 78%
    08:00 +13°C° 0 mm 3 m/s 762 mmHg 73%
    09:00 +14°C° 0 mm 3 m/s 763 mmHg 68%
    10:00 +16°C° 0 mm 3 m/s 763 mmHg 61%
    11:00 +17°C° 0 mm 3 m/s 763 mmHg 54%
    12:00 +19°C° 0 mm 3 m/s 763 mmHg 48%
    13:00 +19°C° 0 mm 3 m/s 763 mmHg 48%
    14:00 +19°C° 0 mm 3 m/s 763 mmHg 49%
    15:00 +19°C° 0 mm 3 m/s 763 mmHg 49%
    16:00 +17°C° 0 mm 3 m/s 763 mmHg 55%
    17:00 +16°C° 0 mm 3 m/s 763 mmHg 62%
    18:00 +13°C° 0 mm 3 m/s 763 mmHg 68%
    19:00 +13°C° 0 mm 3 m/s 764 mmHg 70%
    20:00 +12°C° 0 mm 3 m/s 764 mmHg 72%
    21:00 +11°C° 0 mm 3 m/s 764 mmHg 74%
    22:00 +11°C° 0 mm 3 m/s 764 mmHg 75%
    23:00 +11°C° 0 mm 3 m/s 765 mmHg 76%

    Amanhã, 15 Novembro, Quinta-feira

    Tempo Temperatura Precipitação Vento Pressão Humidade
    00:00 +10°C° 0 mm 3 m/s 765 mmHg 77%
    01:00 +10°C° 0 mm 3 m/s 765 mmHg 77%
    02:00 +10°C° 0 mm 3 m/s 765 mmHg 78%
    03:00 +9°C° 0 mm 3 m/s 765 mmHg 78%
    04:00 +9°C° 0 mm 3 m/s 765 mmHg 79%
    05:00 +9°C° 0 mm 3 m/s 765 mmHg 79%
    06:00 +9°C° 0 mm 3 m/s 765 mmHg 80%
    07:00 +10°C° 0 mm 3 m/s 766 mmHg 74%
    08:00 +12°C° 0 mm 3 m/s 766 mmHg 68%
    09:00 +13°C° 0 mm 3 m/s 766 mmHg 62%
    10:00 +16°C° 0 mm 3 m/s 766 mmHg 56%
    11:00 +17°C° 0 mm 2 m/s 766 mmHg 49%
    12:00 +19°C° 0 mm 2 m/s 766 mmHg 43%
    13:00 +19°C° 0 mm 2 m/s 765 mmHg 43%
    14:00 +19°C° 0 mm 2 m/s 765 mmHg 44%
    15:00 +19°C° 0 mm 2 m/s 765 mmHg 44%
    16:00 +17°C° 0 mm 2 m/s 765 mmHg 52%
    17:00 +16°C° 0 mm 2 m/s 765 mmHg 59%
    18:00 +14°C° 0 mm 2 m/s 765 mmHg 67%
    19:00 +13°C° 0 mm 2 m/s 766 mmHg 69%
    20:00 +13°C° 0 mm 2 m/s 766 mmHg 71%
    21:00 +12°C° 0 mm 2 m/s 766 mmHg 74%
    22:00 +12°C° 0 mm 2 m/s 766 mmHg 74%
    23:00 +12°C° 0 mm 2 m/s 766 mmHg 74%

    Depois de amanhã, 16 Novembro, Sexta-feira

    Tempo Temperatura Precipitação Vento Pressão Humidade
    00:00 +10°C° 0 mm 2 m/s 766 mmHg 75%
    01:00 +11°C° 0 mm 1 m/s 766 mmHg 75%
    02:00 +11°C° 0 mm 1 m/s 766 mmHg 75%
    03:00 +11°C° 0 mm 1 m/s 766 mmHg 75%
    04:00 +11°C° 0 mm 1 m/s 765 mmHg 74%
    05:00 +11°C° 0 mm 1 m/s 765 mmHg 73%
    06:00 +11°C° 0 mm 1 m/s 765 mmHg 72%
    07:00 +12°C° 0 mm 1 m/s 765 mmHg 66%
    08:00 +14°C° 0 mm 1 m/s 766 mmHg 60%
    09:00 +16°C° 0 mm 1 m/s 766 mmHg 54%
    10:00 +18°C° 0 mm 1 m/s 765 mmHg 50%
    11:00 +20°C° 0 mm 1 m/s 765 mmHg 45%
    12:00 +22°C° 0 mm 1 m/s 765 mmHg 41%
    13:00 +21°C° 0 mm 1 m/s 764 mmHg 42%
    14:00 +21°C° 0 mm 1 m/s 764 mmHg 43%
    15:00 +20°C° 0 mm 2 m/s 763 mmHg 44%
    16:00 +20°C° 0 mm 1 m/s 763 mmHg 50%
    17:00 +18°C° 0 mm 1 m/s 763 mmHg 56%
    18:00 +16°C° 0 mm 1 m/s 764 mmHg 62%
    19:00 +16°C° 0 mm 1 m/s 764 mmHg 64%
    20:00 +15°C° 0 mm 1 m/s 764 mmHg 66%
    21:00 +15°C° 0 mm 1 m/s 764 mmHg 68%
    22:00 +15°C° 0.1 mm 1 m/s 764 mmHg 69%
    23:00 +15°C° 0.1 mm 1 m/s 764 mmHg 70%

    17 Novembro, Sábado

    Tempo Temperatura Precipitação Vento Pressão Humidade
    00:00 +14°C° 0.1 mm 1 m/s 764 mmHg 70%
    01:00 +14°C° 0.2 mm 1 m/s 764 mmHg 72%
    02:00 +14°C° 0.2 mm 1 m/s 763 mmHg 74%
    03:00 +14°C° 0.2 mm 1 m/s 763 mmHg 75%
    04:00 +14°C° 0.1 mm 1 m/s 763 mmHg 75%
    05:00 +14°C° 0.1 mm 1 m/s 763 mmHg 76%
    06:00 +14°C° 0.1 mm 1 m/s 763 mmHg 76%
    07:00 +14°C° 0 mm 1 m/s 763 mmHg 74%
    08:00 +15°C° 0 mm 1 m/s 763 mmHg 72%
    09:00 +16°C° 0 mm 2 m/s 763 mmHg 70%
    10:00 +17°C° 0 mm 2 m/s 763 mmHg 65%
    11:00 +18°C° 0 mm 2 m/s 763 mmHg 61%
    12:00 +19°C° 0 mm 2 m/s 762 mmHg 57%
    13:00 +18°C° 0.4 mm 2 m/s 762 mmHg 63%
    14:00 +18°C° 0.4 mm 2 m/s 762 mmHg 68%
    15:00 +17°C° 0.4 mm 2 m/s 762 mmHg 74%
    16:00 +16°C° 0.2 mm 2 m/s 762 mmHg 77%
    17:00 +16°C° 0.2 mm 1 m/s 762 mmHg 80%
    18:00 +15°C° 0.2 mm 1 m/s 762 mmHg 83%
    19:00 +15°C° 0 mm 1 m/s 762 mmHg 84%
    20:00 +14°C° 0 mm 1 m/s 762 mmHg 85%
    21:00 +14°C° 0 mm 1 m/s 762 mmHg 86%
    22:00 +14°C° 0 mm 1 m/s 762 mmHg 87%
    23:00 +14°C° 0 mm 1 m/s 763 mmHg 87%

    18 Novembro, Domingo

    Tempo Temperatura Precipitação Vento Pressão Humidade
    00:00 +13°C° 0 mm 2 m/s 763 mmHg 87%
    01:00 +13°C° 0 mm 1 m/s 762 mmHg 87%
    02:00 +13°C° 0 mm 1 m/s 762 mmHg 86%
    03:00 +13°C° 0 mm 1 m/s 762 mmHg 86%
    04:00 +12°C° 0 mm 1 m/s 762 mmHg 85%
    05:00 +12°C° 0 mm 1 m/s 762 mmHg 84%
    06:00 +12°C° 0 mm 1 m/s 762 mmHg 83%
    07:00 +14°C° 0 mm 1 m/s 763 mmHg 78%
    08:00 +15°C° 0 mm 1 m/s 763 mmHg 74%
    09:00 +16°C° 0 mm 1 m/s 764 mmHg 69%
    10:00 +19°C° 0 mm 1 m/s 763 mmHg 62%
    11:00 +20°C° 0 mm 1 m/s 763 mmHg 56%
    12:00 +21°C° 0 mm 2 m/s 762 mmHg 49%
    13:00 +22°C° 0 mm 1 m/s 762 mmHg 48%
    14:00 +22°C° 0 mm 1 m/s 762 mmHg 47%
    15:00 +22°C° 0 mm 1 m/s 761 mmHg 47%
    16:00 +20°C° 0 mm 1 m/s 762 mmHg 54%
    17:00 +19°C° 0 mm 1 m/s 762 mmHg 61%
    18:00 +16°C° 0 mm 1 m/s 762 mmHg 69%
    19:00 +16°C° 0 mm 1 m/s 762 mmHg 72%
    20:00 +15°C° 0 mm 1 m/s 763 mmHg 74%
    21:00 +15°C° 0 mm 1 m/s 763 mmHg 77%
    22:00 +14°C° 0 mm 1 m/s 763 mmHg 77%
    23:00 +14°C° 0 mm 1 m/s 763 mmHg 78%

    19 Novembro, Segunda-feira

    Tempo Temperatura Precipitação Vento Pressão Humidade
    00:00 +14°C° 0 mm 1 m/s 762 mmHg 78%
    01:00 +14°C° 0 mm 1 m/s 762 mmHg 77%
    02:00 +14°C° 0 mm 1 m/s 762 mmHg 76%
    03:00 +15°C° 0 mm 1 m/s 762 mmHg 76%
    04:00 +14°C° 0.8 mm 1 m/s 762 mmHg 79%
    05:00 +14°C° 0.8 mm 1 m/s 763 mmHg 83%
    06:00 +14°C° 0.8 mm 1 m/s 763 mmHg 86%
    07:00 +15°C° 0.1 mm 1 m/s 763 mmHg 83%
    08:00 +15°C° 0.1 mm 1 m/s 763 mmHg 80%
    09:00 +16°C° 0.1 mm 1 m/s 763 mmHg 77%
    10:00 +16°C° 0.2 mm 1 m/s 763 mmHg 76%
    11:00 +16°C° 0.2 mm 1 m/s 763 mmHg 75%
    12:00 +16°C° 0.2 mm 1 m/s 763 mmHg 74%
    13:00 +17°C° 0.1 mm 2 m/s 763 mmHg 72%
    14:00 +17°C° 0.1 mm 2 m/s 763 mmHg 71%
    15:00 +17°C° 0.1 mm 2 m/s 762 mmHg 69%
    16:00 +16°C° 0 mm 2 m/s 763 mmHg 72%
    17:00 +14°C° 0 mm 3 m/s 763 mmHg 75%
    18:00 +13°C° 0 mm 3 m/s 764 mmHg 79%
    19:00 +13°C° 0 mm 3 m/s 764 mmHg 79%
    20:00 +13°C° 0 mm 2 m/s 765 mmHg 79%
    21:00 +13°C° 0 mm 2 m/s 765 mmHg 79%
    22:00 +12°C° 0 mm 2 m/s 765 mmHg 78%
    23:00 +12°C° 0 mm 2 m/s 765 mmHg 77%
    Mostrar mais